Great Falls, MT

4:02 PM MDT on August 21, 2017 (GMT -0600)
Great Falls International

Weather History for KGTF - July, 2013

Change the Weather History Date:

Sunday, July 14, 2013

  Actual Average Record
Temperature  
Mean Temperature 72 °F 67 °F  
Max Temperature 87 °F 84 °F 101 °F (2002)
Min Temperature 56 °F 51 °F 41 °F (1912)
Degree Days  
Heating Degree Days 0 2  
Month to date heating degree days 7 33  
Since 1 June heating degree days 179 224  
Since 1 July heating degree days 7 33  
Cooling Degree Days 7 4  
Month to date cooling degree days 86 44  
Year to date cooling degree days 116 83  
Since 1 June cooling degree days 113 76  
Growing Degree Days 22 (Base 50)    
Moisture  
Dew Point 42 °F    
Average Humidity 38    
Maximum Humidity 62    
Minimum Humidity 14    
Precipitation  
Precipitation T in 0.05 in 1.34 in (1927)
Month to date precipitation 0.08 0.80  
Year to date precipitation 7.52 9.06  
Snow  
Snow 0.00 in 0.00 in 0.00 in (2002)
Month to date snowfall 0.0 0.0  
Since 1 June snowfall 0.0 0.3  
Since 1 July snowfall 0.0 0.0  
Snow Depth 0.00 in    
Sea Level Pressure  
Sea Level Pressure 30.04 in    
Wind  
Wind Speed 7 mph (SE)    
Max Wind Speed 16 mph    
Max Gust Speed 23 mph    
Visibility 10 miles    
Events      
T = Trace of Precipitation, MM = Missing Value Source: NWS Daily Summary

Daily Weather History Graph

Daily Weather History Graph

Search for Another Location

Airport or City:

Trip Planner

Search our weather history database for the weather conditions in past years. The results will help you decide how hot, cold, wet, or windy it might be!

Date:

Astronomy

Jul. 14, 2013 Rise Set
Actual Time 5:43 AM MDT 9:19 PM MDT
Civil Twilight 5:04 AM MDT 9:57 PM MDT
Nautical Twilight 4:12 AM MDT 10:49 PM MDT
Astronomical Twilight 3:01 AM MDT 11:59 PM MDT
Moon 12:34 PM MDT (7/14) No Moon Set
Length of Visible Light 16h 53m
Length of Day
15h 36m
Waxing Crescent, 35% of the Moon is Illuminated
Jul 14
Waxing Crescent
Jul 15
First Quarter
Jul 22
Full
Jul 29
Last Quarter
Aug 6
New

Hourly Weather History & Observations

Time (MDT) Temp. Dew Point Humidity Pressure Visibility Wind Dir Wind Speed Gust Speed Precip Events Conditions
12:53 AM 60.1 °F 42.1 °F 51% 30.16 in 10.0 mi East 12.7 mph - N/A   Scattered Clouds
1:53 AM 57.9 °F 42.1 °F 56% 30.15 in 10.0 mi ENE 11.5 mph - N/A   Partly Cloudy
2:53 AM 59.0 °F 43.0 °F 55% 30.14 in 10.0 mi ENE 9.2 mph - N/A   Overcast
3:53 AM 60.1 °F 43.0 °F 53% 30.12 in 10.0 mi East 9.2 mph - 0.00 in   Overcast
4:53 AM 60.1 °F 44.1 °F 55% 30.12 in 10.0 mi ESE 12.7 mph - N/A   Partly Cloudy
5:53 AM 57.0 °F 44.1 °F 62% 30.13 in 10.0 mi ESE 9.2 mph - N/A   Clear
6:53 AM 57.9 °F 45.0 °F 62% 30.13 in 10.0 mi East 4.6 mph - N/A   Clear
7:53 AM 60.1 °F 45.0 °F 57% 30.12 in 10.0 mi Calm Calm - N/A   Clear
8:53 AM 62.1 °F 45.0 °F 53% 30.14 in 10.0 mi Variable 4.6 mph - N/A   Scattered Clouds
9:53 AM 66.0 °F 45.0 °F 47% 30.11 in 10.0 mi SSE 4.6 mph - N/A   Partly Cloudy
10:53 AM 71.1 °F 45.0 °F 39% 30.10 in 10.0 mi Variable 6.9 mph - N/A   Scattered Clouds
11:53 AM 73.9 °F 45.0 °F 35% 30.08 in 10.0 mi Calm Calm - N/A   Partly Cloudy
12:53 PM 77.0 °F 46.9 °F 34% 30.04 in 10.0 mi Calm Calm - N/A   Clear
1:53 PM 81.0 °F 45.0 °F 28% 30.01 in 10.0 mi SW 9.2 mph - N/A   Clear
2:53 PM 82.0 °F 43.0 °F 25% 29.99 in 10.0 mi Calm Calm - N/A   Partly Cloudy
3:53 PM 84.0 °F 42.1 °F 23% 29.97 in 10.0 mi South 5.8 mph - N/A   Scattered Clouds
4:53 PM 84.9 °F 37.0 °F 18% 29.95 in 10.0 mi SW 8.1 mph - N/A   Partly Cloudy
5:53 PM 86.0 °F 34.0 °F 16% 29.93 in 10.0 mi Variable 6.9 mph 16.1 mph N/A   Clear
6:53 PM 84.9 °F 30.0 °F 14% 29.92 in 10.0 mi WSW 11.5 mph - N/A   Clear
7:53 PM 82.9 °F 28.9 °F 14% 29.91 in 10.0 mi WSW 4.6 mph - N/A   Clear
8:53 PM 75.0 °F 37.0 °F 25% 29.92 in 10.0 mi West 3.5 mph - N/A   Clear
9:53 PM 72.0 °F 44.1 °F 37% 29.93 in 10.0 mi SE 9.2 mph - N/A   Clear
10:53 PM 68.0 °F 48.9 °F 50% 29.92 in 10.0 mi ESE 8.1 mph - N/A   Clear
11:53 PM 66.9 °F 45.0 °F 45% 29.91 in 10.0 mi South 8.1 mph - N/A   Clear